Regional Weather Roundup
Issued by NWS San Diego, CA

Home | Current Version | Previous Version | Text Only | Print | Product List | Glossary On
Versions: 1 2 3 4 5 6 7 8 9 10 11 12 13 14 15 16 17 18 19 20 21 22 23 24 25 26 27 28 29 30 31 32 33 34 35 36 37 38 39 40 41 42 43 44 45 46 47 48 49 50
000
ASUS46 KSGX 281311
RWRSGX

SAN DIEGO HOURLY WEATHER ROUNDUP
NATIONAL WEATHER SERVICE SAN DIEGO CA
600 AM PDT SUN MAY 28 2017

NOTE: "FAIR" INDICATES FEW OR NO CLOUDS BELOW 12,000 FEET WITH NO
SIGNIFICANT WEATHER AND/OR OBSTRUCTIONS TO VISIBILITY.

CAZ042-043-060-061-PZZ750-775-281400-

GREATER SAN DIEGO AREA

CITY           SKY/WX    TMP DP  RH WIND       PRES   REMARKS
SAN DIEGO AP   MOCLDY    58  53  84 N3        30.03R
NATIONAL CITY    N/A     56  51  84 CALM      30.02R
CHULA VISTA      N/A     53  50  92 CALM      29.93S
IMPERIAL BEACH PTCLDY    52  50  93 E5        30.02R
BROWN FIELD    CLEAR     52  50  93 E5        30.01R
MIRAMAR MCAS   PTCLDY    53  47  79 NE5       30.01R
MONTGOMERY FLD CLEAR     56  50  80 CALM      30.01R

$$

NORTH SAN DIEGO COUNTY

CITY           SKY/WX    TMP DP  RH WIND       PRES   REMARKS
CAMP PENDLETON CLEAR     49  47  93 CALM      30.01S
OCEANSIDE AP   CLEAR     48  47  96 CALM      30.01R
OCEANSIDE HBR    N/A     53  49  87 CALM      30.03S
VISTA            N/A     50  45  82 CALM      29.99R
CARLSBAD       CLEAR     55  52  89 CALM      30.00R
DEL MAR          N/A     54  52  94 CALM      30.03R
LA JOLLA SCRIP   N/A     58  56  92 NW1       30.00S
FALLBROOK        N/A     51  51 100 CALM      30.02R
ESCONDIDO        N/A     52  47  82 CALM      30.02R
SAN MARCOS       N/A     52  47  84 CALM      30.02R
POWAY            N/A     48  44  87 CALM      30.03R

$$

EAST SAN DIEGO COUNTY

CITY           SKY/WX    TMP DP  RH WIND       PRES   REMARKS
RAMONA         CLEAR     43  43 100 CALM      30.01R
SANTEE LAKES     N/A     50  47  91 CALM      30.01R
LA MESA          N/A     53  50  89 CALM      29.94R
JAMUL            N/A     47  45  91 CALM      30.01R
DESCANSO N       N/A     47  26  44 NE9       29.96R
CAMPO            N/A     40  33  76 NE8       29.99R WCI  34

$$

ORANGE COUNTY AND THE LOS ANGELES BASIN

CITY           SKY/WX    TMP DP  RH WIND       PRES   REMARKS
JOHN WAYNE AP  PTCLDY    58  54  86 E5        30.01R
LAKE FOREST FR   N/A     52  46  81 CALM      29.91R
HUNTINGTON BCH   N/A     52  51  95 CALM      30.02R
LOS ALAMITOS   FAIR      53  51  92 CALM      30.00S
FULLERTON      CLEAR     57  51  80 E3        30.00R
LONG BEACH     CLEAR     57  51  80 CALM      30.01R
L.A. AP        PTCLDY    58  56  93 S6        30.00S
L.A. DOWNTOWN  CLEAR     59  55  87 CALM      30.00R

$$

THE INLAND EMPIRE

CITY           SKY/WX    TMP DP  RH WIND       PRES   REMARKS
CORONA         CLEAR     45  43  93 CALM      30.02R
CHINO          CLEAR     54  50  86 CALM      30.02R FOG
ONTARIO        CLEAR     56  49  77 CALM      30.01R
SAN BERNARDINO FAIR      55  47  72 CALM      30.01R
RIVERSIDE AP   CLEAR     55  51  86 CALM      30.01R
MORENO VALLEY    N/A     52  51  96 CALM      28.12S
MARCH ARB      CLEAR     47  45  91 CALM      30.00S
HORSETHIEF CYN   N/A     51  44  78 W3        30.00S
PERRIS           N/A     54  51  90 CALM      30.03R
HEMET EAST       N/A     51  44  75 CALM      30.04R
FRENCH VALLEY  FAIR      52  46  82 CALM      30.01S
TEMECULA         N/A     51  49  92 CALM      30.09R

$$

SAN BERNARDINO AND RIVERSIDE COUNTY MOUNTAINS

CITY           SKY/WX    TMP DP  RH WIND       PRES   REMARKS
BIG BEAR AP    CLEAR     32  19  59 CALM      30.23S
ANGELUS OAKS     N/A     51  23  33 CALM      29.89R
PINE COVE        N/A     57  14  18 CALM      29.89S

$$

SOUTHERN DESERT INCLUDING THE COACHELLA VALLEY

CITY           SKY/WX    TMP DP  RH WIND       PRES   REMARKS
PALM SPRINGS   CLEAR     67  51  56 CALM      29.90R
PALM DESERT      N/A     67  51  57 CALM      30.79R
THERMAL        CLEAR     69  48  47 NW6       29.84R
BLYTHE         CLEAR     65  28  24 N7        29.86R
IMPERIAL AP    CLEAR     66  44  45 W5        29.84R
EL CENTRO NAS  CLEAR     64  33  31 W5        29.86R
YUMA AZ        CLEAR     70  43  37 S5        29.86R
MEXICALI       CLEAR     68  52  56 CALM      29.86

$$

UPPER DESERT

CITY           SKY/WX    TMP DP  RH WIND       PRES   REMARKS
VICTORVILLE AP CLEAR     54  36  50 CALM      30.04S
HESPERIA         N/A     54  33  45 W3        30.09R
PALMDALE       CLEAR     56  46  69 S7        30.04R
LANCASTER      CLEAR     50  42  74 CALM      30.03R
EDWARDS AFB    CLEAR     53  42  65 CALM      30.01R
DAGGETT        CLEAR     62  40  44 W10       29.99R
29 PALMS N     CLEAR     65  31  28 W6        30.05R
NEEDLES        CLEAR     73  22  14 SW8       29.91R

$$

REGIONAL REPORTS

CITY           SKY/WX    TMP DP  RH WIND       PRES   REMARKS
SANTA BARBARA  CLEAR     52  50  93 CALM      30.00R
SANDBERG       CLEAR     59  43  55 NW15      30.11S
LAS VEGAS NV   CLEAR     74  23  15 NE5       30.01R
PHOENIX AZ     PTCLDY    74  35  24 E8        29.88R
TIJUANA        PTCLDY    54  46  76 CALM      30.03R
ENSENADA NW      N/A     57  32  39 CALM      29.98S

$$

OFFSHORE ISLANDS

CITY           SKY/WX    TMP DP  RH WIND       PRES   REMARKS
CATALINA ARPT  FOG       53  53 100 SW7       30.02R VSB<1/4
SAN NICOLAS IS CLOUDY    53  32  44 W21       30.02R

$$

MARINE AND OFFSHORE BUOY REPORTS

STATION/POSITION SKY/WX   TEMP    WIND        PRES    VSBY  SWELL
                          AIR SEA DIR/SP/G                  HT/PER/DIR
                          (F)     (DEG/KT/KT) (MB)    (MI)  (FT/S/D)
TANNER BANKS               58 60  310/ 14/ 17 1017.1R         3/280/13
S CLEMENTE BASIN           60 62  290/  8/ 10 1016.9R         3/290/ 6
SAN NICOLAS IS.               59                N/A           2/190/14
SO. S. ROSA ISLA           56 57  320/ 21/ 25 1016.3S         3/290/10
W. S. BARBARA CH           55 54  310/ 19/ 23 1016.6R         2/260/11
M. S. BARBARA CH           56 57   CALM  /  2 1016.8R         2/260/ 4
S. MONICA BASIN            59 60  320/  6/  6 1016.0R         3/200/14
S PEDRO CHANNEL               62                N/A           2/240/11
CMP PENDLETON NS              59                N/A           2/210/12
OCEANSIDE OFFSHR              61                N/A           2/190/14
TORREY PINES OTR              63                N/A           2/210/14
SAN DIEGO BAY                 67              1016.5R
POINT LOMA SOUTH              64                N/A           2/200/15

$$





USA.gov is the U.S. government's official web portal to all federal, state and local government web resources and services.